Location: Peebles
(55.6412°N, 3.1714°W)
Time: 09:42:57
(UTC+01:00)

NOSS 3-3 (A) - Pass Details

Date: 31 January 2022
Orbit: 789 x 1423 km, 63.4° (Epoch: 23 April)

Event Time Altitude Azimuth Distance (km) Brightness Sun altitude
Rises 04:55:57 0° 156° (SSE) 3,381 7.0 -26.9°
Reaches altitude 10° 04:59:54 10° 127° (SE) 2,549 6.7 -26.4°
Maximum altitude 05:02:13 12° 104° (ESE) 2,443 6.9 -26.1°
Drops below altitude 10° 05:04:38 10° 80° (E) 2,698 7.4 -25.7°
Sets 05:09:06 0° 54° (NE) 3,807 8.0 -25.1°
